Regional Weather Roundup
Issued by NWS Sioux Falls, SD

Home | Current Version | Previous Version | Graphics & Text | Print | Product List | Glossary On
Versions: 1 2 3 4 5 6 7 8 9 10 11 12 13 14 15 16 17 18 19 20 21 22 23 24 25 26 27 28 29 30 31 32 33 34 35 36 37 38 39 40 41 42 43 44 45 46 47 48 49 50
000
ASUS43 KFSD 280002
RWRFSD

WEATHER ROUNDUP FOR SE SOUTH DAKOTA/SW MINNESOTA/NW IOWA
NATIONAL WEATHER SERVICE SIOUX FALLS SD
700 PM CDT FRI MAY 27 2016

NOTE: "FAIR" INDICATES FEW OR NO CLOUDS BELOW 12,000 FEET WITH NO
SIGNIFICANT WEATHER AND OR OBSTRUCTIONS TO VISIBILITY.


SDZ038>040-050-052>070-280100-
SOUTHEAST SOUTH DAKOTA

CITY           SKY/WX    TMP DP  RH WIND       PRES   REMARKS
BROOKINGS      SUNNY     70  56  61 N7        29.72S
CHAMBERLAIN    NOT AVBL
HURON          SUNNY     69  60  73 N9        29.72F
6HR MIN TEMP:  62; 6HR MAX TEMP:  72; 6HR PCP: TRACE;

MADISON        FAIR      68  61  77 NE6       29.73S
MITCHELL       PTSUNNY   72  58  61 N5        29.72F
6HR MIN TEMP:  65; 6HR MAX TEMP:  73; 6HR PCP: TRACE;

SIOUX FALLS    CLOUDY    73  59  61 NE8       29.70F
6HR MIN TEMP:  70; 6HR MAX TEMP:  76;

WINNER         FAIR      70  52  52 N14       29.75F
YANKTON        MOSUNNY   73  59  60 W5        29.70R
$$

MNZ071-072-080-081-089-090-097-098-280100-
SOUTHWEST MINNESOTA

CITY           SKY/WX    TMP DP  RH WIND       PRES   REMARKS
FAIRMONT       SUNNY     73  57  56 NE6       29.72R
JACKSON        SUNNY     73  52  46 CALM      29.72F
LUVERNE        MOSUNNY   72  54  53 NE6       29.72S
MARSHALL       CLOUDY    72  57  59 E13       29.70F
6HR MIN TEMP:  71; 6HR MAX TEMP:  75;

MONTEVIDEO     PTSUNNY   73  57  56 E12       29.73S
PIPESTONE      SUNNY     73  54  49 CALM      29.73R
REDWOOD FALLS  SUNNY     70  60  70 NE5       29.71F
TRACY          MOSUNNY   73  59  61 NE10      29.72S
WINDOM         SUNNY     73  54  49 CALM      29.71F
WORTHINGTON    PTSUNNY   73  58  59 E6        29.72F
$$

IAZ001>003-012>014-020>022-031-032-NEZ013-014-SDZ071-280100-
NORTHWEST IOWA

CITY           SKY/WX    TMP DP  RH WIND       PRES   REMARKS
ESTHERVILLE    SUNNY     75  57  53 VRB5      29.71S
SIOUX CITY     MOSUNNY   79  59  50 E7        29.68F
6HR MIN TEMP:  71; 6HR MAX TEMP:  80;

SPENCER        SUNNY     73  56  54 NW3       29.71S
6HR MIN TEMP:  70; 6HR MAX TEMP:  78;

STORM LAKE     MOSUNNY   75  54  46 CALM      29.73R
$$

ABBREVIATIONS USED IN REMARKS
   TC - TEMPERATURE IN CELSIUS
  WCI - WIND CHILL INDEX
   HX - HEAT INDEX
  VSB - VISIBILITY




USA.gov is the U.S. government's official web portal to all federal, state and local government web resources and services.